Weather History for EGPH - November, 2011

Change the Weather History Date:

Wednesday, November 2, 2011

  Actual Average Record
Temperature  
Mean Temperature 49 °F -  
Max Temperature 57 °F 48 °F 59 °F (1996)
Min Temperature 41 °F 36 °F 26 °F (1998)
Degree Days  
Heating Degree Days 16    
Moisture  
Dew Point 44 °F    
Average Humidity 80    
Maximum Humidity 93    
Minimum Humidity 67    
Precipitation  
Precipitation 0.00 in 0.08 in - ()
Sea Level Pressure  
Sea Level Pressure 29.50 in    
Wind  
Wind Speed 6 mph ()    
Max Wind Speed 14 mph    
Max Gust Speed -    
Visibility 6.2 miles    
Events Rain    
Averages and records for this station are not official NWS values.
T = Trace of Precipitation, MM = Missing Value Source: Averaged Metar Reports

Daily Weather History Graph

Daily Weather History Graph

Search for Another Location

Airport or City:

Trip Planner

Search our weather history database for the weather conditions in past years. The results will help you decide how hot, cold, wet, or windy it might be!

Date:

Astronomy

Nov. 02, 2011 Rise Set
Actual Time 7:21 AM GMT 4:31 PM GMT
Civil Twilight 6:41 AM GMT 5:11 PM GMT
Nautical Twilight 5:57 AM GMT 5:55 PM GMT
Astronomical Twilight 5:14 AM GMT 6:38 PM GMT
Moon 1:35 PM GMT (11/2) 11:05 PM GMT (11/2)
Length of Visible Light 10h 29m
Length of Day
9h 10m
Waxing Crescent, 48% of the Moon is Illuminated
Nov 2
Waxing Crescent
Nov 2
First Quarter
Nov 10
Full
Nov 18
Last Quarter
Nov 25
New

Hourly Weather History & Observations

Time (GMT) Temp. Windchill Dew Point Humidity Pressure Visibility Wind Dir Wind Speed Gust Speed Precip Events Conditions
12:20 AM 41.0 °F 37.1 °F 39.2 °F 93% 29.68 in - ESE 5.8 mph - N/A   Clear
12:50 AM 42.8 °F 38.6 °F 39.2 °F 87% 29.68 in - ESE 6.9 mph - N/A   Clear
1:20 AM 42.8 °F 38.6 °F 41.0 °F 93% 29.68 in - SE 6.9 mph - N/A   Clear
1:50 AM 42.8 °F 41.1 °F 39.2 °F 87% 29.68 in - ESE 3.5 mph - N/A   Clear
2:20 AM 41.0 °F 37.1 °F 39.2 °F 93% 29.65 in - East 5.8 mph - N/A   Clear
2:50 AM 41.0 °F 37.1 °F 39.2 °F 93% 29.65 in 6.2 mi East 5.8 mph - N/A   Unknown
3:20 AM 42.8 °F 38.6 °F 41.0 °F 93% 29.62 in 6.2 mi ENE 6.9 mph - N/A   Unknown
3:50 AM 44.6 °F 41.4 °F 42.8 °F 93% 29.62 in 6.2 mi NE 5.8 mph - N/A   Unknown
4:20 AM 44.6 °F 40.7 °F 41.0 °F 87% 29.62 in - ENE 6.9 mph - N/A   Clear
4:50 AM 44.6 °F 43.1 °F 42.8 °F 93% 29.62 in - NNE 3.5 mph - N/A   Clear
5:20 AM 46.4 °F 45.2 °F 41.0 °F 81% 29.62 in - Variable 3.5 mph - N/A   Clear
5:50 AM 46.4 °F 43.5 °F 42.8 °F 87% 29.59 in - SSE 5.8 mph - N/A   Clear
6:20 AM 48.2 °F - 42.8 °F 82% 29.59 in - South 9.2 mph - N/A   Clear
6:50 AM 48.2 °F - 42.8 °F 82% 29.59 in - South 8.1 mph - N/A   Clear
7:20 AM 48.2 °F - 42.8 °F 82% 29.59 in - South 9.2 mph - N/A   Clear
7:50 AM 50.0 °F - 44.6 °F 82% 29.59 in 6.2 mi SSE 10.4 mph - N/A   Partly Cloudy
8:20 AM 50.0 °F - 44.6 °F 82% 29.59 in 6.2 mi SE 6.9 mph - N/A   Partly Cloudy
8:50 AM 50.0 °F - 44.6 °F 82% 29.56 in 6.2 mi ESE 8.1 mph - N/A   Partly Cloudy
9:50 AM 53.6 °F - 46.4 °F 77% 29.56 in 6.2 mi Variable 3.5 mph - N/A   Partly Cloudy
10:50 AM 57.2 °F - 46.4 °F 67% 29.53 in - SSE 13.8 mph - N/A   Clear
11:20 AM 57.2 °F - 46.4 °F 67% 29.53 in 6.2 mi South 12.7 mph - N/A   Partly Cloudy
11:50 AM 55.4 °F - 44.6 °F 67% 29.53 in 6.2 mi SSE 9.2 mph - N/A   Partly Cloudy
12:20 PM 55.4 °F - 46.4 °F 72% 29.53 in 6.2 mi SE 6.9 mph - N/A   Scattered Clouds
12:50 PM 55.4 °F - 44.6 °F 67% 29.50 in 6.2 mi South 9.2 mph - N/A   Partly Cloudy
1:20 PM 55.4 °F - 44.6 °F 67% 29.50 in 6.2 mi SE 6.9 mph - N/A   Partly Cloudy
1:50 PM 55.4 °F - 44.6 °F 67% 29.47 in - SSE 9.2 mph - N/A   Clear
2:20 PM 53.6 °F - 44.6 °F 72% 29.47 in - SE 10.4 mph - N/A   Clear
2:50 PM 53.6 °F - 44.6 °F 72% 29.47 in - SE 9.2 mph - N/A   Clear
3:20 PM 53.6 °F - 44.6 °F 72% 29.44 in - ESE 6.9 mph - N/A   Clear
3:50 PM 53.6 °F - 44.6 °F 72% 29.44 in 6.2 mi East 10.4 mph - N/A   Partly Cloudy
4:20 PM 51.8 °F - 44.6 °F 76% 29.44 in 6.2 mi East 9.2 mph - N/A   Partly Cloudy
4:50 PM 51.8 °F - 44.6 °F 76% 29.42 in 6.2 mi East 12.7 mph - N/A   Partly Cloudy
5:20 PM 50.0 °F - 44.6 °F 82% 29.42 in - ENE 11.5 mph - N/A   Clear
5:50 PM 51.8 °F - 44.6 °F 76% 29.42 in - NNE 8.1 mph - N/A   Clear
6:20 PM 51.8 °F - 46.4 °F 82% 29.42 in 6.2 mi NE 5.8 mph - N/A   Partly Cloudy
6:50 PM 51.8 °F - 46.4 °F 82% 29.42 in 6.2 mi Variable 4.6 mph - N/A   Scattered Clouds
7:20 PM 51.8 °F - 46.4 °F 82% 29.39 in 6.2 mi East 5.8 mph - N/A   Mostly Cloudy
7:50 PM 53.6 °F - 48.2 °F 82% 29.36 in 6.2 mi ESE 13.8 mph - N/A   Scattered Clouds
8:20 PM 53.6 °F - 48.2 °F 82% 29.36 in 6.2 mi ESE 9.2 mph - N/A   Partly Cloudy
8:50 PM 55.4 °F - 48.2 °F 77% 29.36 in 6.2 mi SE 9.2 mph - N/A Rain Light Rain
9:20 PM 53.6 °F - 48.2 °F 82% 29.36 in 6.2 mi Variable 2.3 mph - N/A   Partly Cloudy
9:50 PM 53.6 °F - 48.2 °F 82% 29.33 in 6.2 mi East 5.8 mph - N/A   Partly Cloudy
10:20 PM 55.4 °F - 48.2 °F 77% 29.33 in - East 4.6 mph - N/A   Clear
10:50 PM 53.6 °F - 48.2 °F 82% 29.30 in 6.2 mi SE 6.9 mph - N/A   Partly Cloudy
11:20 PM 51.8 °F - 48.2 °F 88% 29.30 in 6.2 mi Variable 3.5 mph - N/A   Partly Cloudy
11:50 PM 53.6 °F - 48.2 °F 82% 29.30 in 6.2 mi Calm Calm - N/A   Partly Cloudy